Flag for U.S.A. Weather past 2 weeks in Lubbock, Texas, U.S.A.

Now
75 °F

Thunderstorms. Partly sunny.


Feels Like: 77 °F
Forecast: 72 / 94 °F
Wind: 21 mph from South

Location: Lubbock International Airport

Current Time: Aug 3, 2015 at 9:28:52 PM

Latest Report: Aug 3, 2015 at 8:53 PM


Visibility: 10 mi

Pressure: 29.83 "Hg (26.66 "Hg at 976m altitude)

Humidity: 62%

Dew point: 61 °F

Location of LubbockLocation

Historic Weather in Lubbock — Graph

°F

Lubbock temperature yesterday

Maximum temperature yesterday: 95 °F (at 3:53 PM)
Minimum temperature yesterday: 68 °F (at 3:53 AM)
Average temperature yesterday: 80 °F

Past Weeks' High & Low Weather Summary

 TemperatureHumidityPressure
High97 °F (Jul 27, 4:53 PM)93% (Aug 2, 5:53 AM)30.10 "Hg (Aug 2, 5:53 AM)
Low67 °F (Jul 29, 6:53 AM)28% (Jul 25, 4:53 PM)29.73 "Hg (Jul 27, 6:53 PM)
Average82 °F57%29.88 "Hg
* Reported Jul 19 7:53 PM — Aug 3 7:53 PM, Lubbock, Weather by CustomWeather, © 2015

Note: Actual official high and low records may vary slightly from our data, if they occured in-between our weather recording intervals... More about our weather records

Advertising

Lubbock weather history for previous 24 hours

 ConditionsComfort  
Time TempWeatherWind HumidityBarometerVisibility
7:53 PM
Mon, Aug 3
82 °FThunderstorms. Mostly cloudy.3 mph56%29.80 "Hg10 mi
6:53 PM88 °FPartly sunny.9 mph40%29.78 "Hg10 mi
5:53 PM90 °FPartly sunny.15 mph37%29.78 "Hg10 mi
4:53 PM94 °FScattered clouds.18 mph32%29.78 "Hg10 mi
3:53 PM93 °FPassing clouds.15 mph36%29.80 "Hg10 mi
2:53 PM91 °FBroken clouds.12 mph39%29.83 "Hg10 mi
1:53 PM89 °FBroken clouds.12 mph43%29.84 "Hg10 mi
12:53 PM88 °FBroken clouds.14 mph45%29.84 "Hg10 mi
11:53 AM85 °FScattered clouds.8 mph48%29.86 "Hg10 mi
10:53 AM82 °FScattered clouds.9 mph55%29.87 "Hg10 mi
9:53 AM77 °FPartly sunny.6 mph69%29.87 "Hg10 mi
8:53 AM74 °FBroken clouds.5 mph76%29.88 "Hg10 mi
7:53 AM72 °FPartly cloudy.6 mph78%29.85 "Hg10 mi
6:53 AM72 °FPartly cloudy.No wind76%29.83 "Hg10 mi
5:53 AM73 °FPassing clouds.9 mph74%29.81 "Hg10 mi
4:53 AM73 °FPassing clouds.10 mph74%29.83 "Hg10 mi
3:53 AM75 °FPartly cloudy.18 mph66%29.82 "Hg10 mi
2:53 AM75 °FMostly cloudy.9 mph66%29.83 "Hg10 mi
1:53 AM75 °FPartly cloudy.7 mph64%29.82 "Hg10 mi
12:53 AM77 °FPartly cloudy.6 mph62%29.81 "Hg10 mi
11:53 PM
Sun, Aug 2
78 °FPartly cloudy.9 mph58%29.82 "Hg10 mi
10:53 PM79 °FPassing clouds.10 mph56%29.81 "Hg10 mi
9:53 PM82 °FPassing clouds.12 mph51%29.80 "Hg10 mi
Weather by CustomWeather, © 2015

See weather overviewHow to use our weather pages